When you browse on this site, cookies collect data to enhance your experience and personalize the content and advertising you see.
Visit our Privacy Policy to learn more. By continuing to use the site, you agree to this use of cookies and data.

Hourly Weather Samroung

Today, 10 August, Monday

Time Temperature Precipitation Wind Pressure Humidity
00:00 +28°C° 0.5 mm 2 mps 754 mmHg 94%
01:00 +28°C° 0.5 mm 1 mps 754 mmHg 94%
02:00 +28°C° 0.9 mm 1 mps 754 mmHg 94%
03:00 +28°C° 0.9 mm 1 mps 754 mmHg 93%
04:00 +27°C° 0.9 mm 1 mps 754 mmHg 93%
05:00 +28°C° 1.5 mm 2 mps 754 mmHg 92%
06:00 +28°C° 1.5 mm 2 mps 754 mmHg 92%
07:00 +28°C° 1.5 mm 2 mps 755 mmHg 91%
08:00 +29°C° 0.9 mm 2 mps 755 mmHg 88%
09:00 +30°C° 0.9 mm 2 mps 755 mmHg 84%
10:00 +31°C° 0.9 mm 2 mps 756 mmHg 81%
11:00 +31°C° 1.6 mm 3 mps 755 mmHg 81%
12:00 +32°C° 1.6 mm 4 mps 755 mmHg 80%
13:00 +32°C° 1.6 mm 5 mps 754 mmHg 80%
14:00 +32°C° 0.6 mm 5 mps 754 mmHg 80%
15:00 +32°C° 0.6 mm 5 mps 753 mmHg 81%
16:00 +32°C° 0.6 mm 5 mps 753 mmHg 81%
17:00 +30°C° 0.3 mm 5 mps 753 mmHg 85%
18:00 +29°C° 0.3 mm 4 mps 753 mmHg 88%
19:00 +28°C° 0.3 mm 4 mps 754 mmHg 91%
20:00 +28°C° 0.1 mm 4 mps 754 mmHg 91%
21:00 +28°C° 0.1 mm 4 mps 755 mmHg 92%
22:00 +28°C° 0.1 mm 4 mps 755 mmHg 92%
23:00 +28°C° 0.8 mm 4 mps 755 mmHg 92%

Tomorrow, 11 August, Tuesday

Time Temperature Precipitation Wind Pressure Humidity
00:00 +28°C° 0.8 mm 4 mps 755 mmHg 92%
01:00 +28°C° 0.8 mm 5 mps 755 mmHg 92%
02:00 +28°C° 0.7 mm 5 mps 754 mmHg 92%
03:00 +28°C° 0.7 mm 4 mps 754 mmHg 92%
04:00 +28°C° 0.7 mm 4 mps 754 mmHg 92%
05:00 +28°C° 1.4 mm 4 mps 754 mmHg 92%
06:00 +28°C° 1.4 mm 4 mps 754 mmHg 92%
07:00 +28°C° 1.4 mm 3 mps 755 mmHg 92%
08:00 +28°C° 0.6 mm 3 mps 755 mmHg 91%
09:00 +28°C° 0.6 mm 2 mps 755 mmHg 90%
10:00 +29°C° 0.6 mm 2 mps 756 mmHg 89%
11:00 +30°C° 0.3 mm 2 mps 755 mmHg 84%
12:00 +31°C° 0.3 mm 2 mps 755 mmHg 79%
13:00 +32°C° 0.3 mm 2 mps 754 mmHg 74%
14:00 +31°C° 0.8 mm 3 mps 754 mmHg 75%
15:00 +31°C° 0.8 mm 3 mps 753 mmHg 76%
16:00 +32°C° 0.8 mm 4 mps 753 mmHg 77%
17:00 +30°C° 0.5 mm 3 mps 753 mmHg 81%
18:00 +29°C° 0.5 mm 3 mps 753 mmHg 85%
19:00 +28°C° 0.5 mm 3 mps 754 mmHg 89%
20:00 +28°C° 0 mm 3 mps 755 mmHg 90%
21:00 +28°C° 0 mm 3 mps 755 mmHg 91%
22:00 +28°C° 0 mm 3 mps 756 mmHg 92%
23:00 +27°C° 0.1 mm 3 mps 756 mmHg 92%

Day after tomorrow, 12 August, Wednesday

Time Temperature Precipitation Wind Pressure Humidity
00:00 +27°C° 0.1 mm 2 mps 755 mmHg 92%
01:00 +27°C° 0.1 mm 2 mps 755 mmHg 92%
02:00 +27°C° 0.1 mm 2 mps 755 mmHg 92%
03:00 +27°C° 0.1 mm 2 mps 754 mmHg 92%
04:00 +27°C° 0.1 mm 3 mps 754 mmHg 92%
05:00 +27°C° 0.1 mm 3 mps 754 mmHg 91%
06:00 +28°C° 0.1 mm 2 mps 755 mmHg 90%
07:00 +28°C° 0.1 mm 2 mps 755 mmHg 89%
08:00 +29°C° 0.1 mm 3 mps 755 mmHg 84%
09:00 +30°C° 0.1 mm 4 mps 756 mmHg 79%
10:00 +33°C° 0.1 mm 4 mps 756 mmHg 74%
11:00 +33°C° 0.7 mm 5 mps 756 mmHg 75%
12:00 +33°C° 0.7 mm 5 mps 755 mmHg 75%
13:00 +33°C° 0.7 mm 5 mps 755 mmHg 76%
14:00 +32°C° 0.1 mm 5 mps 754 mmHg 75%
15:00 +32°C° 0.1 mm 5 mps 753 mmHg 74%
16:00 +32°C° 0.1 mm 5 mps 753 mmHg 74%
17:00 +30°C° 0 mm 4 mps 753 mmHg 78%
18:00 +29°C° 0 mm 4 mps 753 mmHg 83%
19:00 +28°C° 0 mm 3 mps 754 mmHg 88%
20:00 +28°C° 0 mm 3 mps 755 mmHg 88%
21:00 +28°C° 0 mm 2 mps 755 mmHg 89%
22:00 +28°C° 0 mm 2 mps 756 mmHg 89%
23:00 +28°C° 0.1 mm 2 mps 756 mmHg 89%

13 August, Thursday

Time Temperature Precipitation Wind Pressure Humidity
00:00 +28°C° 0.1 mm 2 mps 755 mmHg 89%
01:00 +28°C° 0.1 mm 2 mps 755 mmHg 89%
02:00 +28°C° 0.2 mm 2 mps 755 mmHg 89%
03:00 +27°C° 0.2 mm 2 mps 754 mmHg 89%
04:00 +27°C° 0.2 mm 2 mps 754 mmHg 89%
05:00 +28°C° 0.3 mm 2 mps 754 mmHg 89%
06:00 +28°C° 0.3 mm 2 mps 755 mmHg 88%
07:00 +28°C° 0.3 mm 3 mps 755 mmHg 87%
08:00 +29°C° 0.4 mm 3 mps 755 mmHg 82%
09:00 +30°C° 0.4 mm 3 mps 755 mmHg 76%
10:00 +31°C° 0.4 mm 3 mps 756 mmHg 71%
11:00 +33°C° 0.5 mm 3 mps 755 mmHg 70%
12:00 +33°C° 0.5 mm 3 mps 755 mmHg 70%
13:00 +33°C° 0.5 mm 3 mps 754 mmHg 69%
14:00 +31°C° 0.6 mm 3 mps 754 mmHg 72%
15:00 +31°C° 0.6 mm 3 mps 753 mmHg 76%
16:00 +30°C° 0.6 mm 3 mps 753 mmHg 79%
17:00 +29°C° 0.2 mm 2 mps 753 mmHg 82%
18:00 +29°C° 0.2 mm 2 mps 754 mmHg 85%
19:00 +28°C° 0.2 mm 1 mps 754 mmHg 89%
20:00 +28°C° 0 mm 1 mps 755 mmHg 89%
21:00 +27°C° 0 mm 1 mps 755 mmHg 89%
22:00 +27°C° 0 mm 1 mps 756 mmHg 89%
23:00 +27°C° 0 mm 1 mps 755 mmHg 89%

14 August, Friday

Time Temperature Precipitation Wind Pressure Humidity
00:00 +27°C° 0 mm 1 mps 755 mmHg 89%
01:00 +27°C° 0 mm 1 mps 755 mmHg 89%
02:00 +27°C° 0.2 mm 1 mps 754 mmHg 89%
03:00 +27°C° 0.2 mm 1 mps 754 mmHg 89%
04:00 +27°C° 0.2 mm 1 mps 754 mmHg 89%
05:00 +27°C° 0 mm 1 mps 754 mmHg 88%
06:00 +28°C° 0 mm 1 mps 754 mmHg 87%
07:00 +28°C° 0 mm 1 mps 755 mmHg 86%
08:00 +29°C° 0.5 mm 1 mps 755 mmHg 81%
09:00 +30°C° 0.5 mm 1 mps 756 mmHg 77%
10:00 +31°C° 0.5 mm 2 mps 756 mmHg 72%
11:00 +32°C° 0.6 mm 2 mps 755 mmHg 71%
12:00 +33°C° 0.6 mm 3 mps 755 mmHg 71%
13:00 +33°C° 0.6 mm 3 mps 755 mmHg 70%
14:00 +32°C° 1.7 mm 4 mps 754 mmHg 76%
15:00 +29°C° 1.7 mm 4 mps 754 mmHg 82%
16:00 +28°C° 1.7 mm 4 mps 754 mmHg 88%
17:00 +28°C° 0.4 mm 4 mps 754 mmHg 90%
18:00 +27°C° 0.4 mm 3 mps 754 mmHg 92%
19:00 +27°C° 0.4 mm 3 mps 755 mmHg 94%
20:00 +27°C° 0 mm 2 mps 755 mmHg 94%
21:00 +27°C° 0 mm 2 mps 756 mmHg 95%
22:00 +27°C° 0 mm 2 mps 756 mmHg 95%
23:00 +26°C° 0 mm 1 mps 756 mmHg 94%

15 August, Saturday

Time Temperature Precipitation Wind Pressure Humidity
00:00 +26°C° 0 mm 1 mps 755 mmHg 93%
01:00 +26°C° 0 mm 1 mps 755 mmHg 92%
02:00 +26°C° 0 mm 1 mps 755 mmHg 91%
03:00 +26°C° 0 mm 1 mps 754 mmHg 90%
04:00 +24°C° 0 mm 0 mps 754 mmHg 89%
05:00 +24°C° 0 mm 0 mps 754 mmHg 89%
06:00 +25°C° 0 mm 0 mps 755 mmHg 88%
07:00 +25°C° 0 mm 0 mps 755 mmHg 88%
08:00 +27°C° 0 mm 0 mps 755 mmHg 80%
09:00 +29°C° 0 mm 0 mps 756 mmHg 73%
10:00 +31°C° 0 mm 0 mps 756 mmHg 65%
11:00 +32°C° 0.3 mm 1 mps 756 mmHg 67%
12:00 +32°C° 0.3 mm 1 mps 755 mmHg 68%
13:00 +32°C° 0.3 mm 1 mps 754 mmHg 70%
14:00 +32°C° 0.3 mm 1 mps 754 mmHg 72%
15:00 +32°C° 0.3 mm 2 mps 754 mmHg 73%
16:00 +31°C° 0.3 mm 2 mps 753 mmHg 75%
17:00 +30°C° 0.1 mm 1 mps 754 mmHg 80%
18:00 +29°C° 0.1 mm 1 mps 754 mmHg 85%
19:00 +28°C° 0.1 mm 1 mps 755 mmHg 90%
20:00 +28°C° 0 mm 1 mps 755 mmHg 90%
21:00 +27°C° 0 mm 1 mps 756 mmHg 91%
22:00 +25°C° 0 mm 0 mps 756 mmHg 91%
23:00 +25°C° 0 mm 0 mps 756 mmHg 91%
Show more